Flag for U.S.A. Weather past 2 weeks in Everett, Washington, U.S.A.

Now
56 °F

Clear.


Feels Like: 52 °F
Forecast: 57 / 66 °F
Wind: 18 mph from South

Location: Snohomish County Airport

Current Time: Aug 30, 2015 at 1:52:18 AM

Latest Report: Aug 30, 2015 at 12:53 AM


Visibility: 10 mi

Pressure: 29.75 "Hg

Humidity: 90%

Dew point: 53 °F

Location of EverettLocation

Historic Weather in Everett — Graph

°F

Everett temperature yesterday

Maximum temperature yesterday: 69 °F (at 10:53 AM)
Minimum temperature yesterday: 57 °F (at 10:53 PM)
Average temperature yesterday: 63 °F

Past Weeks' High & Low Weather Summary

 TemperatureHumidityPressure
High85 °F (Aug 19, 3:53 PM)93% (Aug 15, 1:53 AM)30.28 "Hg (Aug 15, 1:53 AM)
Low54 °F (Aug 16, 5:53 AM)29% (Aug 27, 4:53 PM)29.51 "Hg (Aug 29, 4:53 AM)
Average64 °F65%30.01 "Hg
* Reported Aug 14 11:53 PM — Aug 29 11:53 PM, Everett, Weather by CustomWeather, © 2015

Note: Actual official high and low records may vary slightly from our data, if they occured in-between our weather recording intervals... More about our weather records

Advertising

Everett weather history for previous 24 hours

 ConditionsComfort  
Time TempWeatherWind HumidityBarometerVisibility
11:53 PM
Sat, Aug 29
57 °FRain. Fog.20 mph87%29.76 "Hg6 mi
10:53 PM57 °FPassing clouds.16 mph87%29.75 "Hg10 mi
9:53 PM58 °FLight rain. Overcast.21 mph87%29.76 "Hg7 mi
8:53 PM59 °FRain. Fog.20 mph87%29.77 "Hg3 mi
7:53 PM63 °FLight rain. Mostly cloudy.23 mph81%29.75 "Hg10 mi
6:53 PMN/AScattered clouds.29 mphN/A29.76 "Hg10 mi
5:53 PMN/AScattered clouds.29 mphN/A29.75 "Hg10 mi
4:53 PMN/AMore clouds than sun.25 mphN/A29.74 "Hg10 mi
3:53 PMN/AOvercast.25 mphN/A29.76 "Hg10 mi
1:53 PM69 °FScattered clouds.38 mph57%29.68 "Hg10 mi
12:53 PM68 °FBroken clouds.44 mph61%29.62 "Hg10 mi
11:53 AM66 °FLight rain. Cloudy.25 mph65%29.56 "Hg10 mi
10:53 AM69 °FPartly sunny.28 mph57%29.55 "Hg10 mi
9:53 AM67 °FPartly sunny.24 mph73%29.55 "Hg10 mi
8:53 AM62 °FPartly sunny.16 mph86%29.57 "Hg10 mi
7:53 AM61 °FLight rain. Mostly cloudy.12 mph90%29.56 "Hg10 mi
6:53 AM61 °FRain. Fog.21 mph90%29.59 "Hg3 mi
5:53 AM59 °FLight rain. Mostly cloudy.9 mph93%29.54 "Hg8 mi
4:53 AM64 °FLight rain. Overcast.5 mph78%29.51 "Hg10 mi
3:53 AM64 °FLight rain. Overcast.5 mph81%29.54 "Hg10 mi
2:53 AM62 °FLight rain. Mostly cloudy.3 mph90%29.59 "Hg10 mi
1:53 AM62 °FPassing clouds.No wind86%29.62 "Hg10 mi
Weather by CustomWeather, © 2015

See weather overviewHow to use our weather pages